KJ5MTR Weather Reports


time (UTC)temp
C
wind
direction
speed
KPH
gust
KPH
rain 1hr
cm
rain 24hr
cm
rain mn
cm
humidity
%
barometer
mb
20260506195517 20 315 1.6 14.5 0.00 0.00 0.00 78 1011.4
20260506194517 20 338 1.6 11.3 0.00 0.00 0.00 77 1011.4
20260506193517 21 315 3.2 19.3 0.00 0.00 0.00 77 1011.3
20260506192537 21 338 1.6 16.1 0.00 0.00 0.00 75 1011.3
20260506191517 22 315 1.6 11.3 0.00 0.00 0.00 75 1011.4
20260506190517 22 338 1.6 12.9 0.00 0.00 0.00 74 1011.6
20260506185517 23 0.0 6.4 0.00 0.00 0.00 73 1011.6
20260506184517 23 0.0 3.2 0.00 0.00 0.00 72 1011.5
20260506183517 24 0.0 4.8 0.00 0.00 0.00 70 1011.5
20260506182517 24 0.0 1.6 0.00 0.00 0.00 71 1011.4
20260506181517 23 0.0 0.0 0.00 0.00 0.00 73 1011.5
20260506180517 22 0.0 1.6 0.00 0.00 0.00 73 1011.1
20260506175517 22 0.0 1.6 0.00 0.00 0.00 75 1011.1
20260506174517 22 0.0 0.0 0.00 0.00 0.00 74 1010.9
20260506173517 21 0.0 1.6 0.00 0.00 0.00 75 1011.0
20260506172517 21 0.0 0.0 0.00 0.00 0.00 76 1011.3
20260506171517 20 0.0 3.2 0.00 0.00 0.00 78 1011.1
20260506170517 20 0.0 4.8 0.00 0.00 0.00 81 1011.2
20260506165517 19 0.0 1.6 0.00 0.00 0.00 83 1011.5
20260506164517 18 338 1.6 11.3 0.00 0.00 0.00 84 1011.8
20260506163517 17 0.0 3.2 0.00 0.00 0.00 88 1011.8
20260506162517 16 315 3.2 16.1 0.00 0.00 0.00 88 1012.1
20260506161517 16 338 3.2 17.7 0.00 0.00 0.00 90 1012.7
20260506160517 16 338 3.2 16.1 0.00 0.00 0.00 90 1013.1
20260506155517 17 338 3.2 14.5 0.00 0.00 0.00 90 1012.9
20260506154517 17 315 1.6 11.3 0.00 0.00 0.00 90 1012.5
20260506153557 18 315 1.6 16.1 0.00 0.00 0.00 89 1012.6
20260506152517 18 315 1.6 12.9 0.00 0.00 0.00 89 1011.8
20260506151517 19 0.0 0.0 0.00 0.00 0.00 88 1011.5
20260506150537 20 338 1.6 11.3 0.00 0.00 0.00 84 1011.2
20260506145517 23 338 3.2 16.1 0.00 0.00 0.00 77 1011.0
20260506144516 26 0.0 0.0 0.00 0.00 0.00 84 1010.2
20260506143536 26 0.0 0.0 0.00 0.00 0.00 84 1009.9
20260506142516 26 0.0 1.6 0.00 0.00 0.00 84 1009.7
20260506141517 26 0.0 1.6 0.00 0.00 0.00 86 1009.5
20260506140517 25 0.0 0.0 0.00 0.00 0.00 86 1009.8
20260506135536 25 0.0 0.0 0.00 0.00 0.00 87 1009.8
20260506134516 25 0.0 0.0 0.00 0.00 0.00 86 1009.4
20260506133516 25 0.0 1.6 0.00 0.00 0.00 88 1009.4
20260506132516 24 0.0 0.0 0.00 0.00 0.00 90 1009.2
20260506131516 24 0.0 0.0 0.00 0.00 0.00 91 1009.2
20260506130516 23 0.0 1.6 0.00 0.00 0.00 92 1009.1
20260506125536 23 0.0 0.0 0.00 0.00 0.00 92 1009.0
20260506124516 23 0.0 0.0 0.00 0.00 0.00 93 1009.0
20260506123516 23 0.0 0.0 0.00 0.00 0.00 93 1008.9
20260506122518 23 0.0 0.0 0.00 0.00 0.00 93 1008.9
20260506121516 23 0.0 0.0 0.00 0.00 0.00 93 1008.8
20260506120516 23 0.0 0.0 0.00 0.00 0.00 93 1008.8
20260506115537 23 0.0 0.0 0.00 0.00 0.00 92 1008.7
20260506114516 23 0.0 0.0 0.00 0.00 0.00 92 1008.8
20260506113516 23 0.0 0.0 0.00 0.00 0.00 92 1008.9
20260506112536 23 0.0 0.0 0.00 0.00 0.00 92 1008.9
20260506111516 23 0.0 0.0 0.00 0.00 0.00 92 1008.8
20260506110516 23 0.0 0.0 0.00 0.00 0.00 92 1008.8
20260506105516 23 0.0 0.0 0.00 0.00 0.00 91 1008.7
20260506104516 23 0.0 0.0 0.00 0.00 0.00 91 1008.7
20260506103517 23 0.0 1.6 0.00 0.00 0.00 91 1008.5
20260506102516 23 0.0 1.6 0.00 0.00 0.00 91 1008.5
20260506101516 23 0.0 0.0 0.00 0.00 0.00 91 1008.5
20260506100536 23 0.0 0.0 0.00 0.00 0.00 91 1008.5
20260506095516 23 0.0 1.6 0.00 0.00 0.00 91 1008.3
20260506094536 23 0.0 0.0 0.00 0.00 0.00 91 1008.2
20260506093516 23 0.0 0.0 0.00 0.00 0.00 91 1008.0
20260506092516 23 0.0 1.6 0.00 0.00 0.00 91 1008.0
20260506091516 23 0.0 0.0 0.00 0.00 0.00 91 1007.9
20260506090517 23 0.0 3.2 0.00 0.00 0.00 91 1007.7
20260506085516 23 0.0 1.6 0.00 0.00 0.00 91 1007.8
20260506084516 23 0.0 3.2 0.00 0.00 0.00 90 1007.6
20260506083517 23 0.0 6.4 0.00 0.00 0.00 90 1007.6
20260506082516 23 0.0 1.6 0.00 0.00 0.00 90 1007.4
20260506081517 23 0.0 6.4 0.00 0.00 0.00 90 1007.4
20260506080536 23 0.0 4.8 0.00 0.00 0.00 90 1007.5
20260506073516 24 0.0 8.0 0.00 0.00 0.00 90 1007.7
20260506072516 24 0.0 4.8 0.00 0.00 0.00 90 1007.8
20260506071536 24 225 1.6 24.1 0.00 0.00 0.00 90 1007.8
20260506070516 24 0.0 8.0 0.00 0.00 0.00 90 1007.9
20260506062516 24 0.0 4.8 0.00 0.00 0.00 90 1007.7
20260506061536 24 0.0 6.4 0.00 0.00 0.00 90 1007.6
20260506060516 24 0.0 3.2 0.00 0.00 0.00 90 1007.8
20260506050556 24 0.0 6.4 0.00 0.00 0.00 90 1007.6
20260506044516 23 0.0 9.7 0.00 0.00 0.00 90 1007.7
20260506043516 24 0.0 1.6 0.00 0.00 0.00 90 1007.7
20260506042516 24 0.0 4.8 0.00 0.00 0.00 90 1007.6
20260506041516 24 0.0 1.6 0.00 0.00 0.00 89 1007.5
20260506040536 24 0.0 1.6 0.00 0.00 0.00 89 1007.5
20260506035516 24 0.0 3.2 0.00 0.00 0.00 89 1007.2
20260506034516 24 0.0 3.2 0.00 0.00 0.00 89 1007.2
20260506033516 24 0.0 0.0 0.00 0.00 0.00 88 1007.2
20260506032556 25 0.0 3.2 0.00 0.00 0.00 88 1007.0
20260506031516 25 0.0 3.2 0.00 0.00 0.00 88 1006.9
20260506030516 25 0.0 1.6 0.00 0.00 0.00 87 1006.8
20260506025516 25 0.0 1.6 0.00 0.00 0.00 87 1006.8
20260506024515 25 0.0 3.2 0.00 0.00 0.00 86 1006.6
20260506023515 25 0.0 6.4 0.00 0.00 0.00 85 1006.3
20260506022536 25 0.0 3.2 0.00 0.00 0.00 84 1006.1
20260506021515 25 0.0 1.6 0.00 0.00 0.00 83 1006.0
20260506020515 25 0.0 0.0 0.00 0.00 0.00 83 1005.7
20260506015515 26 0.0 0.0 0.00 0.00 0.00 83 1005.8
20260506014536 26 0.0 0.0 0.00 0.00 0.00 82 1005.7
20260506013515 26 0.0 1.6 0.00 0.00 0.00 81 1005.7
20260506012515 26 0.0 0.0 0.00 0.00 0.00 80 1005.5
20260506011557 26 0.0 0.0 0.00 0.00 0.00 79 1005.6
20260506010516 27 0.0 1.6 0.00 0.00 0.00 79 1005.7
20260506005535 27 0.0 0.0 0.00 0.00 0.00 78 1005.6
20260506004535 27 0.0 0.0 0.00 0.00 0.00 77 1005.7
20260506003516 27 0.0 0.0 0.00 0.00 0.00 76 1005.6
20260506002515 27 0.0 0.0 0.00 0.00 0.00 75 1005.7
20260506001535 27 0.0 0.0 0.00 0.00 0.00 75 1005.7
20260506000515 28 0.0 1.6 0.00 0.00 0.00 74 1005.6
20260505235535 28 0.0 3.2 0.00 0.00 0.00 73 1005.6
20260505234515 28 0.0 1.6 0.00 0.00 0.00 73 1005.4
20260505233535 28 0.0 3.2 0.00 0.00 0.00 72 1005.3
20260505232517 28 0.0 9.7 0.00 0.00 0.00 71 1005.2
20260505231535 28 0.0 1.6 0.00 0.00 0.00 71 1005.1
20260505230537 28 0.0 1.6 0.00 0.00 0.00 72 1005.1
20260505225515 28 0.0 3.2 0.00 0.00 0.00 73 1005.1
20260505224517 28 0.0 6.4 0.00 0.00 0.00 71 1005.1
20260505223517 29 0.0 1.6 0.00 0.00 0.00 70 1005.0
20260505222517 29 0.0 3.2 0.00 0.00 0.00 69 1005.0
20260505221517 29 0.0 4.8 0.00 0.00 0.00 70 1005.1
20260505220517 30 0.0 4.8 0.00 0.00 0.00 69 1005.3
20260505215537 30 0.0 3.2 0.00 0.00 0.00 68 1005.4
20260505214517 30 0.0 6.4 0.00 0.00 0.00 68 1005.6
20260505213517 30 0.0 8.0 0.00 0.00 0.00 66 1005.5
20260505212517 30 0.0 11.3 0.00 0.00 0.00 66 1005.8
20260505211517 30 0.0 6.4 0.00 0.00 0.00 67 1006.0
20260505210517 29 225 1.6 9.7 0.00 0.00 0.00 67 1006.0
20260505205517 29 0.0 8.0 0.00 0.00 0.00 68 1006.1
20260505204517 29 0.0 1.6 0.00 0.00 0.00 69 1006.1
20260505203517 29 0.0 3.2 0.00 0.00 0.00 70 1006.3
20260505202517 29 0.0 8.0 0.00 0.00 0.00 70 1006.4
20260505201517 29 225 1.6 14.5 0.00 0.00 0.00 69 1006.6
20260505200517 28 0.0 4.8 0.00 0.00 0.00 72 1006.8